星链-5572 (STARLINK-5572 )

导读 | 星芒AI

STARLINK-5572 是 SpaceX Starlink 卫星互联网项目中的一颗低轨卫星,属于“星链”星座的一部分。该卫星由 SpaceX 研制并发射,旨在为全球用户提供高速互联网服务。它运行在约 550 公里的近地轨道上,采用先进通信技术,支持宽带数据传输。STARLINK-5572 与其他星链卫星协同工作,提升网络覆盖和连接稳定性,尤其服务于偏远和网络基础设施薄弱的地区。该卫星的部署有助于实现 SpaceX 构建全球卫星互联网的愿景。

基本信息
目录编号:
55378
目录名称:
STARLINK-5572
国际标识:
2023-013AZ
轨道中心:
EARTH
卫星名称:
星链-5572
卫星全名:
星链-5572 (STARLINK-5572 )
卫星状态:
在轨 (已飞行1013 天)
发射日期:
2023-01-26 UTC
国别 :
美国 (US)
星等 :
--
轨道信息
数据来源 国际轨道数据
星历时间: 2025-11-04T12:33:28+0800
11小时前
查看轨道信息
半长轴: 6937.149km
偏心率: 0.00011
轨道倾角: 43.005°
近地点辐角 259.496°
升交点赤经 275.025°
平近点角 100.576°
近地点: 558.25km
远地点: 559.778km
周期: 95.837分钟
每日圈数: 15.02558
详细信息
固有亮度:
5
最大亮度:
2.5
卫星平台:
Starlink v1.5
覆盖范围:
全球
运营商:
太空探索技术公司
运营商所在国:
美国
制造商(研发单位):
太空探索技术公司
制造商所在国:
美国
使用方式:
暂无
卫星简介
星链(Starlink)计划是由太空探索技术公司(SpaceX)提出的一个巨型低轨卫星互联网星座项目,计划在2019年至2024年间在太空搭建由约1.2万颗卫星组成的“星链”网络,其中1584颗将部署在地球上空550千米处的近地轨道,并从2020年开始工作。该卫星仍在工作。
2D轨道图
3D轨道图
轨道高度分析图
轨道倾角分析图
轨道综合分析图
查看轨道综合分析图